Powrót do katalogu

COSMOS 1818 COOLANT

LostLEO
NORAD 50781·DEBRIS·🇷🇺 Russia

Wystrzelony Feb 1, 1987 z Baikonur Cosmodrome

Loading…

Następne Przeloty (najbliższe 24 godziny)

TLE

NieaktualneSource: Space-Track

Epoka: Jan 15, 2024, 00:48 UTC

1 50781U 87011AW  24015.03350406  .00001606  00000-0  59265-3 0  9994
2 50781  65.0097 166.5754 0019776 283.5677  76.3206 14.35336183511886

Śledź COSMOS 1818 COOLANT w czasie rzeczywistym z AllMySat

Download on the App Store